Regional Weather Roundup
Issued by NWS Wakefield, VA

Home | Current Version | Previous Version | Text Only | Print | Product List | Glossary Off
Versions: 1 2 3 4 5 6 7 8 9 10 11 12 13 14 15 16 17 18 19 20 21 22 23 24 25 26 27

000
ASUS41 KAKQ 041116
RWRAKQ

REGIONAL WEATHER ROUNDUP
NATIONAL WEATHER SERVICE WAKEFIELD VA
600 AM EST SUN DEC 04 2016

Note: "fair" indicates few or no clouds below 12,000 feet with no
significant weather and/or obstructions to visibility. * = Denotes
station may not report precipitation (e.g., rain,snow,etc.),
thunder or fog.

VAZ042-051-052>054-056-041200-
NORTHERN VIRGINIA

CITY           SKY/WX    TMP DP  RH WIND       PRES   REMARKS
WASH NATIONAL  MOCLDY    39  27  62 NW6       30.28S
DULLES         PTCLDY    31  25  78 CALM      30.28S
FORT BELVOIR   MOCLDY    35  26  69 CALM      30.28S
QUANTICO       PTCLDY    35  26  69 CALM      30.30S
FREDERICKSBRG* PTCLDY    33  30  89 CALM      30.29S
STAFFORD*      PTCLDY    32  28  84 CALM      30.33R
WARRENTON      PTCLDY    27  23  84 CALM      30.28S
CULPEPER*      MOCLDY    30  28  92 CALM      30.29F
MANASSAS*      CLOUDY    27  27 100 CALM      30.29S
LEESBURG*      CLOUDY    36  30  80 CALM      30.29S
WINCHESTER     CLOUDY    30  25  80 SW5       30.27S
FRONT ROYAL*   FAIR      32  28  86 S5        30.28R
LURAY*         FAIR      30  30 100 CALM      30.27F
$$

VAZ048-049-060>072-079>083-041200-
CENTRAL AND SOUTH CENTRAL VIRGINIA

CITY           SKY/WX    TMP DP  RH WIND       PRES   REMARKS
RICHMOND       NOT AVBL
CHESTERFIELD*  FAIR      37  16  41 N3        30.29F
PETERSBURG*    PTCLDY    36  29  76 N3        30.29S
HANOVER        CLOUDY    34  26  72 CALM      30.30S
TAPPAHANNOCK*  CLOUDY    31  31 100 CALM      30.29R
QUINTON*       FAIR      34  28  80 CALM      30.28S
CHARLOTTSVILLE PTCLDY    31  26  82 CALM      30.29R
GORDONSVILLE*  FAIR      30  28  93 SW3       30.28S
ORANGE*          N/A     34  30  86 CALM      30.30R
LOUISA*        CLOUDY    34  30  86 CALM      30.27R
BUMPASS*       FAIR      33  29  84 CALM      30.29R
FARMVILLE*     PTCLDY    36  31  82 CALM      30.29R
CREWE*         FAIR      36  30  78 CALM      30.28S
FORT PICKETT*  FAIR      36  24  63 N3        30.28R
CHASE CITY*    FAIR      37  27  66 N5        30.28S
CLARKSVILLE*   FAIR      37  30  75 NE3       30.29R
SOUTH HILL*    CLOUDY    36  30  79 N5        30.33S
LAWRENCEVILLE* FAIR      37  28  71 CALM      30.27S
EMPORIA*       CLOUDY    36  30  80 NW5       30.29F
$$

VAZ088>098-041200-
SOUTHEAST VIRGINIA

CITY           SKY/WX    TMP DP  RH WIND       PRES   REMARKS
NORFOLK        CLOUDY    44  35  70 N9        30.26R
VIRGINIA BEACH PTCLDY    40  34  79 N5        30.25R
NORFOLK NAVAL  CLOUDY    41  34  76 N10       30.28S
WEST POINT*    PTCLDY    33  30  90 CALM      30.30S
SALUDA*        FAIR      39  32  77 NW7       30.27F
NEWPORT NEWS   CLOUDY    37  31  78 N5        30.27S
LANGLEY AFB    CLOUDY    38  32  78 NW8       30.26S
FORT EUSTIS    CLOUDY    38  30  72 VRB3      30.24F
WILLIAMSBURG*  CLOUDY    36  30  80 CALM      30.28F
HR EXEC AP*    FAIR      34  30  86 CALM      30.26S
FRANKLIN*      CLOUDY    36  31  83 CALM      30.28F
US460-WAKEFLD  CLOUDY    36  30  79 CALM      30.27F
$$

VAZ020-022-025-037-045-041200-
WEST CENTRAL AND SOUTHWEST VIRGINIA

CITY           SKY/WX    TMP DP  RH WIND       PRES   REMARKS
STAUNTON*      PTCLDY    28  26  93 CALM      30.29S
WAYNESBORO*    FAIR      28  26  91 CALM      30.26S
HOT SPRINGS VA CLOUDY    27  27 100 SE3       30.13F
LYNCHBURG      MOCLDY    36  28  73 NE3       30.29R
DANVILLE       CLOUDY    38  30  73 NE6       30.29R
SOUTH BOSTON*  FAIR      37  31  80 CALM      30.29R
MARTINSVILLE   CLOUDY    37  28  68 NE3       30.29F
ROANOKE        CLOUDY    37  28  70 SE6       30.28S
BLACKSBURG     CLOUDY    34  28  80 E5        30.23F
DUBLIN*        CLOUDY    34  30  85 CALM      30.23F
MARION*        CLOUDY    34  29  81 CALM      30.21F
HILLSVILLE*    CLOUDY    33  29  85 CALM      30.17F
RICHLANDS*     CLOUDY    33  29  86 S5        30.15F
WISE*          LGT RAIN  36  32  87 CALM      30.16F
ABINGDON*      RAIN      37  34  89 CALM      30.19F
$$

MDZ021>025-VAZ099-100-041200-
SOUTHERN MARYLAND AND THE DELMARVA PENINSULA

CITY           SKY/WX    TMP DP  RH WIND       PRES   REMARKS
PATUXENT RIVER CLOUDY    38  28  67 W8        30.27S
BAY BRIDGE APT CLOUDY    39  30  70 NW14      30.27R
LEONARDTOWN    CLOUDY    36  28  75 W3        30.29R
DOVER          CLOUDY    42  34  73 W9        30.23R
GEORGETOWN     PTCLDY    37  30  75 CALM      30.25R
EASTON         PTCLDY    37  30  75 N7        30.30R
CAMBRIDGE      CLOUDY    34  32  93 CALM      30.26R
SALISBURY      CLOUDY    36  31  82 W3        30.26R
OCEAN CITY     CLOUDY    36  30  79 W5        30.25R
WALLOPS ISLAND PTCLDY    36  32  85 NW6       30.26S
ACCOMACK*      CLOUDY    36  34  93 CALM      30.26S
$$

NCZ012>017-030>032-041200-
NORTH CENTRAL AND EASTERN NORTH CAROLINA

CITY           SKY/WX    TMP DP  RH WIND       PRES   REMARKS
ROANOKE RAPIDS FAIR      37  32  81 NE3       30.28F
RALEIGH        CLOUDY    42  31  64 NE5       30.27F
ELIZABETH CITY CLOUDY    42  35  76 N9        30.26S
AHOSKIE*       CLOUDY    38  32  77 N3        30.28S
EDENTON*       CLOUDY    41  35  80 CALM      30.27S
CURRITUCK*     CLOUDY    41  35  79 NW5       30.27R
KILL DEVIL HLS CLOUDY    47  38  69 N6        30.24R
MANTEO         CLOUDY    46  38  73 N6        30.25R
CAPE HATTERAS  CLOUDY    49  39  68 N8        30.24R
TARBORO*       NOT AVBL
GOLDSBORO      MOCLDY    43  35  71 NE3       30.25S
WASHINGTON       N/A     40  35  81 CALM      30.27S
GREENVILLE     CLOUDY    41  36  81 CALM      30.28R
NEW BERN       CLOUDY    44  35  70 N6        30.27R
WILMINGTON     CLOUDY    46  37  71 N5        30.26R
$$

VAZ048-041200-
ELSEWHERE

CITY           SKY/WX    TMP DP  RH WIND       PRES   REMARKS
HARRISBURG PA  CLOUDY    41  31  67 NW5       30.23R
BALTIMORE      MOCLDY    38  29  70 NW8       30.27R
ANNAPOLIS      PTCLDY    40  30  67 NW8       30.27R
ANDREWS AFB    PTCLDY    36  27  68 NW6       30.26S
PHILADELPHIA   CLOUDY    43  25  49 N5        30.24R
HENDERSON NC   PTCLDY    36  28  73 CALM      30.27F
GREENSBORO     CLOUDY    41  29  62 NE6       30.25R
ROCKY MOUNT    CLOUDY    41  32  70 NE7       30.27F
$$

VAZ100-041200-
MARINE

STATION/POSITION TIME  TEMP    WIND        PRES    WAVE   SWELL
                       AIR SEA DIR/SP/G            HT/PER HT/PER
                 (UTC) (F)     (DEG/KT/KT) (MB)    (FT/S) (FT/S)
BRANDYWINE LGT   1042   43     320/ 10/ 13   N/A
CAPE MAY NJ      1042   44 46  350/  7/ 12 1023.2R
LEWES DE         1042   42 48  300/ 11/ 13 1023.8R
OCEAN-CITY-INLET 1042   39 49  320/  6/  7 1024.5R
WACHAPREAGUE VA  1042   39 47  320/  2/  3 1024.3F
THOMAS POINT MD  1100   39 49  310/ 13/ 14   N/A
GOOSES REEF MD   1100   42 50  330/ 16/ 17 1025.5    1/ 3
COVE POINT MD    1042   39     320/  8/ 11 1025.4S
SOLOMONS ISLAND  1042   40 51  310/  6/ 10   N/A
BISHOPS HEAD MD  1042   41 43  320/  8/ 10 1024.9S
PINEY POINT MD   1048          340/ 12/ 13   N/A
POTOMAC MD       1100   41 51  330/ 12/ 14 1024.3    1/ 3
CAMBRIDGE MD     1042   41 47  290/  6/  8 1024.3R
LEWISETTA VA     1042   41 49  320/  9/ 11 1025.0R
RAPPAHANNOCK LGT 1036          330/ 14/ 16 1024.9F
STINGRAY PT      1100   42     360/ 14/ 16 1025.2    1/ 2
YORK RVR RNG VA  1042   42     350/ 12/ 13 1024.3F
YORKTOWN VA      1042   40 52  330/  9/ 11 1024.7F
JAMESTOWN VA     1100   37 52  330/  4/  6   N/A     0
DOMINION TERM VA 1042   41      60/  1/  3 1024.9S
KIPTOPEKE VA     1036      50  360/  5/  7   N/A
CHES BAY BRIDGE  1036   45 53  350/ 14/ 16 1024.6R
CAPE HENRY VA    1036   46     360/ 13/ 16   N/A
WILLOUBY STN VA  1036   42     360/ 10/ 12 1025.7R
S CRANEY ISL VA  1036   43     360/  9/ 11 1024.7R
CAPE HENRY BUOY  1042      56                N/A     3/ 5
1ST LANDING BUOY 1100   45 52              1024.8    2/ 3
CAPE CHARLES BUO 1056      55                N/A     3/ 6
OFFSHORE WE BUOY 1051      57                N/A     4/ 7
64NM E OF VA BCH 1050   50 60  360/ 16/ 17 1023.2R   5/ 7   3/ 7
DUCK PIER NC     1036   48 55  360/ 14/ 16 1023.5R
44100 DUCK FRF   1005      57                N/A     5/ 8
OREGON INLET NC  1036   48 52  360/  7/ 15 1023.7R
HATTERAS NC      1036   49 56   10/ 13/ 16 1023.2F
DIAMOND SHLS NC  1050   54 75   20/ 14/ 19 1023.1F   5/ 9   5/ 9
CAPE LOOKOUT NC  1100   49      10/  9/ 10 1024.1R
$$




USA.gov is the U.S. government's official web portal to all federal, state and local government web resources and services.